EW0310 Weather Reports


time (UTC)temp
C
wind
direction
speed
KPH
gust
KPH
rain 1hr
cm
rain 24hr
cm
rain mn
cm
humidity
%
barometer
mb
20260504050504 5 227 1.6 4.8 0.00 0.00 0.00 72 1014.1
20260504050003 5 214 3.2 4.8 0.00 0.00 0.00 71 1014.1
20260504045504 5 194 1.6 4.8 0.00 0.00 0.00 72 1014.1
20260504045004 5 215 1.6 9.7 0.00 0.00 0.00 71 1014.1
20260504044504 5 202 1.6 4.8 0.00 0.00 0.00 71 1014.1
20260504044004 6 174 1.6 4.8 0.00 0.00 0.00 70 1014.1
20260504043503 6 204 1.6 4.8 0.00 0.00 0.00 67 1014.1
20260504043005 6 195 1.6 4.8 0.00 0.00 0.00 67 1014.1
20260504042503 6 201 3.2 11.3 0.00 0.00 0.00 64 1014.0
20260504042003 6 211 3.2 8.0 0.00 0.00 0.00 63 1014.1
20260504041503 6 198 3.2 9.7 0.00 0.00 0.00 63 1014.1
20260504041004 7 188 1.6 4.8 0.00 0.00 0.00 61 1014.0
20260504040503 7 213 1.6 9.7 0.00 0.00 0.00 61 1014.0
20260504040004 7 225 3.2 11.3 0.00 0.00 0.00 61 1014.0
20260504035503 7 269 1.6 9.7 0.00 0.00 0.00 60 1014.1
20260504035004 7 203 3.2 12.9 0.00 0.00 0.00 61 1014.1
20260504034503 6 196 1.6 9.7 0.00 0.00 0.00 61 1014.1
20260504034003 6 215 3.2 14.5 0.00 0.00 0.00 62 1014.0
20260504033504 7 222 3.2 9.7 0.00 0.00 0.00 62 1014.1
20260504032503 7 233 1.6 8.0 0.00 0.00 0.00 60 1014.1
20260504032004 7 241 3.2 9.7 0.00 0.00 0.00 60 1014.1
20260504031504 7 209 4.8 12.9 0.00 0.00 0.00 60 1014.1
20260504030504 7 225 0.0 9.7 0.00 0.00 0.00 61 1014.2
20260504030004 6 234 3.2 14.5 0.00 0.00 0.00 61 1014.1
20260504025004 6 188 1.6 4.8 0.00 0.00 0.00 64 1014.2
20260504024503 6 189 1.6 4.8 0.00 0.00 0.00 64 1014.3
20260504024004 7 210 1.6 8.0 0.00 0.00 0.00 63 1014.3
20260504023503 7 213 3.2 9.7 0.00 0.00 0.00 62 1014.3
20260504022503 7 220 1.6 9.7 0.00 0.00 0.00 61 1014.3
20260504022003 7 218 1.6 8.0 0.00 0.00 0.00 63 1014.4
20260504021504 7 223 1.6 4.8 0.00 0.00 0.00 62 1014.4
20260504021004 6 206 3.2 9.7 0.00 0.00 0.00 62 1014.3
20260504020503 7 195 1.6 4.8 0.00 0.00 0.00 64 1014.2
20260504020003 7 225 1.6 4.8 0.00 0.00 0.00 63 1014.3
20260504015504 7 211 1.6 4.8 0.00 0.00 0.00 64 1014.3
20260504015004 7 193 1.6 4.8 0.00 0.00 0.00 62 1014.2
20260504014504 7 170 3.2 9.7 0.00 0.00 0.00 61 1014.3
20260504014004 7 202 1.6 4.8 0.00 0.00 0.00 62 1014.3
20260504013503 7 223 3.2 4.8 0.00 0.00 0.00 61 1014.1
20260504013004 7 207 1.6 4.8 0.00 0.00 0.00 60 1014.1
20260504012003 7 216 3.2 9.7 0.00 0.00 0.00 59 1014.1
20260504011503 8 224 1.6 11.3 0.00 0.00 0.00 56 1014.0
20260504010503 8 186 1.6 4.8 0.00 0.00 0.00 55 1013.9
20260504010004 8 213 1.6 8.0 0.00 0.00 0.00 55 1014.0
20260504005503 8 244 3.2 12.9 0.00 0.00 0.00 54 1014.0
20260504005004 8 222 1.6 9.7 0.00 0.00 0.00 53 1014.0
20260504003503 9 208 3.2 11.3 0.00 0.00 0.00 52 1013.9
20260504003004 9 321 1.6 9.7 0.00 0.00 0.00 51 1014.0
20260504002504 9 226 3.2 12.9 0.00 0.00 0.00 52 1014.0
20260504002003 9 259 3.2 14.5 0.00 0.00 0.00 50 1013.9
20260504001504 10 265 3.2 24.1 0.00 0.00 0.00 50 1013.8
20260504001003 10 238 4.8 14.5 0.00 0.00 0.00 50 1013.8
20260504000503 10 236 6.4 16.1 0.00 0.00 0.00 49 1013.8
20260504000005 10 295 3.2 14.5 0.00 0.00 0.00 49 1013.8
20260503235503 10 262 1.6 14.5 0.00 0.00 0.00 49 1013.7
20260503235004 10 192 3.2 14.5 0.00 0.00 0.00 49 1013.7
20260503234505 10 256 4.8 9.7 0.00 0.00 0.00 48 1013.7
20260503234004 10 222 6.4 19.3 0.00 0.00 0.00 48 1013.8
20260503233504 10 251 4.8 14.5 0.00 0.00 0.00 48 1013.9
20260503233005 10 233 4.8 20.9 0.00 0.00 0.00 48 1013.7
20260503232504 10 248 1.6 9.7 0.00 0.00 0.00 47 1013.7
20260503232004 10 243 8.0 25.7 0.00 0.00 0.00 47 1013.7
20260503231504 11 268 4.8 12.9 0.00 0.00 0.00 47 1013.8
20260503231003 11 238 4.8 19.3 0.00 0.00 0.00 47 1013.7
20260503230504 11 236 3.2 11.3 0.00 0.00 0.00 46 1013.7
20260503230003 11 289 1.6 11.3 0.00 0.00 0.00 47 1013.7
20260503225004 11 282 4.8 19.3 0.00 0.00 0.00 46 1013.7
20260503224504 11 291 3.2 19.3 0.00 0.00 0.00 46 1013.7
20260503224003 11 291 6.4 19.3 0.00 0.00 0.00 46 1013.7
20260503223503 11 295 9.7 22.5 0.00 0.00 0.00 45 1013.8
20260503223004 11 253 6.4 19.3 0.00 0.00 0.00 45 1013.7
20260503222504 11 243 8.0 16.1 0.00 0.00 0.00 45 1013.8
20260503222003 11 254 8.0 20.9 0.00 0.00 0.00 45 1014.0
20260503221504 11 284 8.0 25.7 0.00 0.00 0.00 44 1014.0
20260503220004 11 302 9.7 22.5 0.00 0.00 0.00 45 1013.9
20260503215504 11 291 6.4 25.7 0.00 0.00 0.00 44 1014.0
20260503215004 11 256 6.4 19.3 0.00 0.00 0.00 45 1013.9
20260503214504 11 215 4.8 19.3 0.00 0.00 0.00 46 1013.9
20260503214003 11 266 4.8 14.5 0.00 0.00 0.00 45 1013.9
20260503213504 11 251 3.2 12.9 0.00 0.00 0.00 44 1013.9
20260503213005 11 240 6.4 19.3 0.00 0.03 0.00 43 1014.0
20260503212503 11 253 4.8 14.5 0.00 0.03 0.00 47 1013.9
20260503212004 11 282 1.6 12.9 0.00 0.03 0.00 46 1014.0
20260503211504 11 249 4.8 19.3 0.00 0.03 0.00 45 1014.1
20260503210503 11 259 6.4 20.9 0.00 0.03 0.00 44 1013.9
20260503210004 11 280 9.7 22.5 0.00 0.05 0.00 45 1014.0
20260503205504 11 283 8.0 25.7 0.00 0.05 0.00 46 1013.9
20260503205003 11 253 11.3 32.2 0.00 0.05 0.00 45 1013.9
20260503204504 11 281 8.0 19.3 0.00 0.05 0.00 46 1014.0
20260503204003 11 263 4.8 19.3 0.00 0.05 0.00 46 1014.0
20260503203503 11 269 9.7 25.7 0.00 0.05 0.00 46 1013.9
20260503203003 11 293 4.8 19.3 0.00 0.05 0.00 46 1014.0
20260503202504 11 291 9.7 20.9 0.00 0.05 0.00 45 1014.0
20260503202004 11 274 6.4 16.1 0.00 0.05 0.00 48 1014.1
20260503201504 11 265 8.0 24.1 0.00 0.05 0.00 45 1014.1
20260503201004 11 285 9.7 20.9 0.00 0.05 0.00 46 1014.1
20260503200504 12 246 9.7 27.4 0.00 0.05 0.00 44 1014.1
20260503200004 11 211 3.2 11.3 0.00 0.05 0.00 46 1014.2
20260503195504 11 270 9.7 25.7 0.00 0.05 0.00 46 1014.2
20260503195003 11 291 8.0 19.3 0.00 0.05 0.00 45 1014.4
20260503194503 11 292 8.0 33.8 0.00 0.05 0.00 46 1014.5
20260503194004 11 269 11.3 22.5 0.00 0.05 0.00 45 1014.5
20260503193004 11 298 8.0 33.8 0.00 0.05 0.00 47 1014.5
20260503192504 10 256 6.4 19.3 0.00 0.05 0.00 49 1014.6
20260503192003 10 294 8.0 24.1 0.00 0.05 0.00 47 1014.8
20260503191504 10 291 8.0 19.3 0.00 0.05 0.00 45 1014.8
20260503191004 11 251 6.4 22.5 0.00 0.05 0.00 45 1014.9
20260503190504 11 258 9.7 25.7 0.00 0.05 0.00 47 1014.9
20260503185504 11 278 9.7 29.0 0.00 0.05 0.00 47 1014.9
20260503185004 10 304 6.4 22.5 0.00 0.05 0.00 48 1014.9
20260503184503 10 276 4.8 19.3 0.00 0.05 0.00 50 1014.9
20260503184004 10 260 9.7 20.9 0.00 0.05 0.00 47 1015.1
20260503183504 11 278 8.0 25.7 0.00 0.05 0.00 45 1015.2
20260503182504 10 256 4.8 20.9 0.00 0.05 0.00 50 1015.1
20260503182004 10 267 11.3 22.5 0.00 0.05 0.00 47 1015.1
20260503181504 11 296 11.3 22.5 0.00 0.05 0.00 47 1015.2
20260503181004 10 312 4.8 16.1 0.00 0.05 0.00 49 1015.1
20260503180504 10 260 8.0 22.5 0.00 0.05 0.00 49 1015.2
20260503180005 10 316 4.8 16.1 0.00 0.05 0.00 49 1015.2
20260503175504 10 258 9.7 25.7 0.00 0.05 0.00 50 1015.4
20260503174504 10 294 4.8 19.3 0.00 0.05 0.00 49 1015.4
20260503174003 10 252 9.7 19.3 0.00 0.05 0.00 53 1015.6
20260503173504 9 270 9.7 20.9 0.00 0.05 0.00 52 1015.5
20260503173003 9 283 11.3 22.5 0.00 0.05 0.00 51 1015.4
20260503172504 9 303 9.7 20.9 0.00 0.05 0.00 50 1015.7
20260503172003 9 288 11.3 22.5 0.00 0.05 0.00 52 1015.6
20260503151004 7 246 4.8 20.9 0.00 0.05 0.00 64 1016.3
20260503150503 6 284 11.3 24.1 0.00 0.05 0.00 64 1016.3
20260503131003 3 305 4.8 16.1 0.00 0.05 0.00 78 1016.1
20260503110504 0 302 4.8 12.9 0.00 0.05 0.00 90 1015.3
20260503090503 0 332 3.2 12.9 0.00 0.05 0.00 90 1014.5
20260503081503 0 306 0.0 4.8 0.00 0.05 0.00 90 1014.3
20260503081003 0 299 1.6 4.8 0.00 0.05 0.00 90 1014.3
20260503080504 0 305 1.6 4.8 0.00 0.05 0.00 90 1014.3
20260503072504 0 301 1.6 4.8 0.00 0.05 0.00 89 1014.0
20260503072003 0 299 1.6 4.8 0.00 0.05 0.00 89 1014.0
20260503071504 0 307 1.6 8.0 0.00 0.05 0.00 89 1013.9
20260503071004 0 299 1.6 11.3 0.00 0.05 0.00 89 1014.0
20260503070504 0 303 1.6 4.8 0.00 0.05 0.00 89 1014.0
20260503055003 0 298 0.0 3.2 0.00 0.05 0.00 88 1014.1
20260503054504 0 301 1.6 11.3 0.00 0.05 0.00 87 1014.1
20260503054003 0 309 0.0 11.3 0.00 0.05 0.00 88 1014.2
20260503053504 0 292 1.6 8.0 0.00 0.05 0.00 88 1014.2
20260503053003 0 307 3.2 4.8 0.00 0.05 0.00 88 1014.2